| time (UTC) | temp C | wind direction | speed KPH | gust KPH | rain 1hr cm | rain 24hr cm | rain mn cm | humidity % | barometer mb |
| 20260506192909 | 16 | 0 | 0.0 | 0.0 | 0.00 | 0.56 | 0.56 | 91 | 1006.7 |
| 20260506191909 | 16 | 0 | 0.0 | 0.0 | 0.00 | 0.56 | 0.56 | 92 | 1006.6 |
| 20260506190909 | 16 | 0 | 0.0 | 0.0 | 0.00 | 0.56 | 0.56 | 91 | 1006.9 |
| 20260506185909 | 16 | 0 | 0.0 | 0.0 | 0.00 | 0.56 | 0.56 | 91 | 1006.9 |
| 20260506184909 | 16 | 0 | 0.0 | 0.0 | 0.00 | 0.56 | 0.56 | 91 | 1006.9 |
| 20260506183908 | 16 | 0 | 0.0 | 0.0 | 0.00 | 0.56 | 0.56 | 91 | 1007.0 |
| 20260506182909 | 16 | 0 | 0.0 | 0.0 | 0.00 | 0.56 | 0.56 | 91 | 1007.2 |
| 20260506181909 | 16 | 0 | 0.0 | 0.0 | 0.00 | 0.56 | 0.56 | 91 | 1007.4 |
| 20260506180909 | 16 | 0 | 0.0 | 0.0 | 0.00 | 0.56 | 0.56 | 91 | 1007.4 |
| 20260506175909 | 16 | 0 | 0.0 | 0.0 | 0.00 | 0.56 | 0.56 | 91 | 1007.4 |
| 20260506174909 | 15 | 0 | 0.0 | 0.0 | 0.00 | 0.56 | 0.56 | 90 | 1007.3 |
| 20260506173908 | 15 | 0 | 0.0 | 0.0 | 0.00 | 0.56 | 0.56 | 90 | 1007.4 |
| 20260506172909 | 16 | 0 | 0.0 | 0.0 | 0.03 | 0.56 | 0.56 | 90 | 1007.4 |
| 20260506171909 | 16 | 0 | 0.0 | 0.0 | 0.03 | 0.56 | 0.56 | 91 | 1007.3 |
| 20260506170909 | 16 | 0 | 0.0 | 0.0 | 0.05 | 0.56 | 0.56 | 91 | 1007.4 |
| 20260506165909 | 16 | 0 | 0.0 | 0.0 | 0.05 | 0.56 | 0.56 | 91 | 1007.6 |
| 20260506164909 | 16 | 0 | 0.0 | 0.0 | 0.10 | 0.56 | 0.56 | 91 | 1007.3 |
| 20260506163908 | 16 | 0 | 0.0 | 0.0 | 0.15 | 0.56 | 0.56 | 91 | 1007.3 |
| 20260506162909 | 16 | 0 | 0.0 | 0.0 | 0.18 | 0.53 | 0.53 | 91 | 1007.5 |
| 20260506161909 | 16 | 0 | 0.0 | 0.0 | 0.23 | 0.53 | 0.53 | 91 | 1007.6 |
| 20260506160909 | 15 | 0 | 0.0 | 0.0 | 0.25 | 0.51 | 0.51 | 91 | 1007.4 |
| 20260506155909 | 15 | 0 | 0.0 | 0.0 | 0.30 | 0.51 | 0.51 | 90 | 1008.0 |
| 20260506154909 | 15 | 0 | 0.0 | 0.0 | 0.30 | 0.46 | 0.46 | 90 | 1008.4 |
| 20260506153908 | 15 | 0 | 0.0 | 0.0 | 0.28 | 0.41 | 0.41 | 89 | 1008.6 |
| 20260506152909 | 15 | 0 | 0.0 | 0.0 | 0.25 | 0.36 | 0.36 | 89 | 1008.7 |
| 20260506151909 | 16 | 0 | 0.0 | 0.0 | 0.23 | 0.30 | 0.30 | 88 | 1008.7 |
| 20260506150909 | 16 | 0 | 0.0 | 0.0 | 0.23 | 0.25 | 0.25 | 88 | 1008.6 |
| 20260506145909 | 16 | 0 | 0.0 | 0.0 | 0.20 | 0.20 | 0.20 | 88 | 1008.4 |
| 20260506144909 | 16 | 0 | 0.0 | 0.0 | 0.15 | 0.15 | 0.15 | 87 | 1008.6 |
| 20260506143908 | 16 | 0 | 0.0 | 0.0 | 0.13 | 0.13 | 0.13 | 86 | 1008.6 |
| 20260506142908 | 16 | 0 | 0.0 | 0.0 | 0.10 | 0.10 | 0.10 | 85 | 1008.4 |
| 20260506141909 | 17 | 0 | 0.0 | 0.0 | 0.08 | 0.08 | 0.08 | 83 | 1008.5 |
| 20260506140909 | 17 | 0 | 0.0 | 0.0 | 0.03 | 0.03 | 0.03 | 82 | 1008.5 |
| 20260506135909 | 17 | 0 | 0.0 | 0.0 | 0.00 | 0.00 | 0.00 | 80 | 1008.3 |
| 20260506134909 | 17 | 0 | 0.0 | 0.0 | 0.00 | 0.00 | 0.00 | 80 | 1008.4 |
| 20260506133908 | 17 | 0 | 0.0 | 0.0 | 0.00 | 0.00 | 0.00 | 81 | 1008.3 |
| 20260506132908 | 17 | 0 | 0.0 | 0.0 | 0.00 | 0.00 | 0.00 | 80 | 1008.3 |
| 20260506131909 | 17 | 0 | 0.0 | 0.0 | 0.00 | 0.00 | 0.00 | 79 | 1008.5 |
| 20260506130909 | 17 | 0 | 0.0 | 0.0 | 0.00 | 0.00 | 0.00 | 78 | 1008.4 |
| 20260506125909 | 18 | 0 | 0.0 | 0.0 | 0.00 | 0.00 | 0.00 | 77 | 1008.4 |
| 20260506124908 | 18 | 0 | 0.0 | 0.0 | 0.00 | 0.00 | 0.00 | 75 | 1008.6 |
| 20260506123908 | 18 | 0 | 0.0 | 0.0 | 0.00 | 0.00 | 0.00 | 75 | 1008.6 |
| 20260506122908 | 18 | 0 | 0.0 | 0.0 | 0.00 | 0.00 | 0.00 | 75 | 1008.4 |
| 20260506121909 | 18 | 0 | 0.0 | 0.0 | 0.00 | 0.00 | 0.00 | 75 | 1008.5 |
| 20260506120909 | 18 | 0 | 0.0 | 0.0 | 0.00 | 0.00 | 0.00 | 75 | 1008.3 |
| 20260506115909 | 18 | 0 | 0.0 | 0.0 | 0.00 | 0.00 | 0.00 | 76 | 1008.2 |
| 20260506114908 | 17 | 0 | 0.0 | 0.0 | 0.00 | 0.00 | 0.00 | 76 | 1008.0 |
| 20260506113908 | 17 | 0 | 0.0 | 0.0 | 0.00 | 0.00 | 0.00 | 76 | 1008.0 |
| 20260506112908 | 17 | 0 | 0.0 | 0.0 | 0.00 | 0.00 | 0.00 | 76 | 1008.0 |
| 20260506111909 | 17 | 0 | 0.0 | 0.0 | 0.00 | 0.00 | 0.00 | 76 | 1008.0 |
| 20260506110909 | 17 | 0 | 0.0 | 0.0 | 0.00 | 0.00 | 0.00 | 76 | 1008.0 |
| 20260506105909 | 17 | 0 | 0.0 | 0.0 | 0.00 | 0.00 | 0.00 | 75 | 1008.0 |
| 20260506104908 | 17 | 0 | 0.0 | 0.0 | 0.00 | 0.00 | 0.00 | 76 | 1007.9 |
| 20260506103908 | 17 | 0 | 0.0 | 0.0 | 0.00 | 0.00 | 0.00 | 75 | 1007.8 |
| 20260506102908 | 17 | 0 | 0.0 | 0.0 | 0.00 | 0.00 | 0.00 | 75 | 1007.7 |
| 20260506101909 | 17 | 0 | 0.0 | 0.0 | 0.00 | 0.00 | 0.00 | 75 | 1007.6 |
| 20260506100909 | 18 | 0 | 0.0 | 0.0 | 0.00 | 0.00 | 0.00 | 74 | 1007.6 |
| 20260506095909 | 18 | 0 | 0.0 | 0.0 | 0.00 | 0.00 | 0.00 | 74 | 1007.6 |
| 20260506094908 | 18 | 0 | 0.0 | 0.0 | 0.00 | 0.00 | 0.00 | 74 | 1007.6 |
| 20260506093908 | 18 | 0 | 0.0 | 0.0 | 0.00 | 0.00 | 0.00 | 74 | 1007.6 |
| 20260506092908 | 18 | 0 | 0.0 | 0.0 | 0.00 | 0.00 | 0.00 | 74 | 1007.6 |
| 20260506091909 | 18 | 0 | 0.0 | 0.0 | 0.00 | 0.00 | 0.00 | 73 | 1007.6 |
| 20260506090909 | 18 | 0 | 0.0 | 0.0 | 0.00 | 0.00 | 0.00 | 73 | 1007.6 |
| 20260506085909 | 18 | 0 | 0.0 | 0.0 | 0.00 | 0.00 | 0.00 | 73 | 1007.7 |
| 20260506084908 | 18 | 0 | 0.0 | 0.0 | 0.00 | 0.00 | 0.00 | 72 | 1007.7 |
| 20260506083908 | 18 | 0 | 0.0 | 0.0 | 0.00 | 0.00 | 0.00 | 72 | 1007.8 |
| 20260506082908 | 18 | 0 | 0.0 | 0.0 | 0.00 | 0.00 | 0.00 | 72 | 1007.7 |
| 20260506081908 | 18 | 0 | 0.0 | 0.0 | 0.00 | 0.00 | 0.00 | 72 | 1007.7 |
| 20260506080909 | 18 | 0 | 0.0 | 0.0 | 0.00 | 0.00 | 0.00 | 72 | 1007.8 |
| 20260506072908 | 18 | 0 | 0.0 | 0.0 | 0.00 | 0.00 | 0.00 | 71 | 1008.0 |
| 20260506071908 | 18 | 0 | 0.0 | 0.0 | 0.00 | 0.00 | 0.00 | 70 | 1008.0 |
| 20260506070908 | 18 | 0 | 0.0 | 0.0 | 0.00 | 0.00 | 0.00 | 69 | 1008.1 |
| 20260506061908 | 19 | 0 | 0.0 | 0.0 | 0.00 | 0.00 | 0.00 | 65 | 1008.6 |
| 20260506060908 | 19 | 0 | 0.0 | 0.0 | 0.00 | 0.00 | 0.00 | 64 | 1008.5 |
| 20260506050908 | 19 | 0 | 0.0 | 0.0 | 0.00 | 0.00 | 0.00 | 62 | 1008.9 |
| 20260506044909 | 19 | 0 | 0.0 | 0.0 | 0.00 | 0.00 | 0.00 | 62 | 1008.9 |
| 20260506043908 | 19 | 0 | 0.0 | 0.0 | 0.00 | 0.00 | 0.00 | 62 | 1009.0 |
| 20260506042908 | 19 | 0 | 0.0 | 0.0 | 0.00 | 0.00 | 0.00 | 61 | 1009.0 |
| 20260506041908 | 20 | 0 | 0.0 | 0.0 | 0.00 | 0.00 | 0.00 | 60 | 1009.0 |
| 20260506040908 | 20 | 0 | 0.0 | 0.0 | 0.00 | 0.00 | 0.00 | 60 | 1008.9 |
| 20260506035908 | 20 | 0 | 0.0 | 0.0 | 0.00 | 0.00 | 0.00 | 59 | 1008.9 |
| 20260506034908 | 20 | 0 | 0.0 | 0.0 | 0.00 | 0.00 | 0.00 | 59 | 1008.9 |
| 20260506033909 | 20 | 0 | 0.0 | 0.0 | 0.00 | 0.00 | 0.00 | 59 | 1008.8 |
| 20260506032908 | 20 | 0 | 0.0 | 0.0 | 0.00 | 0.00 | 0.00 | 59 | 1008.7 |
| 20260506031908 | 20 | 0 | 0.0 | 0.0 | 0.00 | 0.00 | 0.00 | 58 | 1008.7 |
| 20260506030908 | 20 | 0 | 0.0 | 0.0 | 0.00 | 0.00 | 0.00 | 58 | 1008.8 |
| 20260506025908 | 20 | 0 | 0.0 | 0.0 | 0.00 | 0.00 | 0.00 | 57 | 1008.9 |
| 20260506024909 | 20 | 0 | 0.0 | 0.0 | 0.00 | 0.00 | 0.00 | 56 | 1008.8 |
| 20260506023908 | 20 | 0 | 0.0 | 0.0 | 0.00 | 0.00 | 0.00 | 56 | 1008.9 |
| 20260506022908 | 21 | 0 | 0.0 | 0.0 | 0.00 | 0.00 | 0.00 | 55 | 1008.9 |
| 20260506021908 | 21 | 0 | 0.0 | 0.0 | 0.00 | 0.00 | 0.00 | 54 | 1008.9 |
| 20260506020908 | 21 | 0 | 0.0 | 0.0 | 0.00 | 0.00 | 0.00 | 53 | 1008.8 |
| 20260506015908 | 21 | 0 | 0.0 | 0.0 | 0.00 | 0.00 | 0.00 | 52 | 1008.9 |
| 20260506014908 | 21 | 0 | 0.0 | 0.0 | 0.00 | 0.00 | 0.00 | 52 | 1008.8 |
| 20260506013908 | 22 | 0 | 0.0 | 0.0 | 0.00 | 0.00 | 0.00 | 51 | 1008.7 |
| 20260506012908 | 22 | 0 | 0.0 | 0.0 | 0.00 | 0.00 | 0.00 | 50 | 1008.6 |
| 20260506011907 | 22 | 0 | 0.0 | 0.0 | 0.00 | 0.00 | 0.00 | 49 | 1008.5 |
| 20260506010908 | 22 | 0 | 0.0 | 0.0 | 0.00 | 0.00 | 0.00 | 49 | 1008.4 |
| 20260506005908 | 22 | 0 | 0.0 | 0.0 | 0.00 | 0.00 | 0.00 | 48 | 1008.3 |
| 20260506004908 | 23 | 0 | 0.0 | 0.0 | 0.00 | 0.00 | 0.00 | 47 | 1008.2 |
| 20260506003908 | 23 | 0 | 0.0 | 0.0 | 0.00 | 0.00 | 0.00 | 46 | 1008.1 |
| 20260506002908 | 23 | 0 | 0.0 | 0.0 | 0.00 | 0.00 | 0.00 | 45 | 1008.0 |
| 20260506001908 | 23 | 0 | 0.0 | 0.0 | 0.00 | 0.00 | 0.00 | 45 | 1007.9 |
| 20260506000907 | 23 | 0 | 0.0 | 0.0 | 0.00 | 0.00 | 0.00 | 44 | 1007.8 |
| 20260505235908 | 23 | 0 | 0.0 | 0.0 | 0.00 | 0.00 | 0.00 | 43 | 1007.7 |
| 20260505234908 | 24 | 0 | 0.0 | 0.0 | 0.00 | 0.00 | 0.00 | 44 | 1007.6 |
| 20260505233908 | 24 | 0 | 0.0 | 0.0 | 0.00 | 0.00 | 0.00 | 43 | 1007.4 |
| 20260505232908 | 24 | 0 | 0.0 | 0.0 | 0.00 | 0.00 | 0.00 | 42 | 1007.3 |
| 20260505231908 | 25 | 0 | 0.0 | 0.0 | 0.00 | 0.00 | 0.00 | 42 | 1007.4 |
| 20260505230907 | 25 | 0 | 0.0 | 0.0 | 0.00 | 0.00 | 0.00 | 42 | 1007.3 |
| 20260505225907 | 25 | 0 | 0.0 | 0.0 | 0.00 | 0.00 | 0.00 | 42 | 1007.3 |
| 20260505224908 | 25 | 0 | 0.0 | 0.0 | 0.00 | 0.00 | 0.00 | 42 | 1007.3 |
| 20260505223908 | 25 | 0 | 0.0 | 0.0 | 0.00 | 0.00 | 0.00 | 42 | 1007.2 |
| 20260505222908 | 25 | 0 | 0.0 | 0.0 | 0.00 | 0.00 | 0.00 | 41 | 1007.2 |
| 20260505221908 | 25 | 0 | 0.0 | 0.0 | 0.00 | 0.00 | 0.00 | 40 | 1007.3 |
| 20260505220908 | 26 | 0 | 0.0 | 0.0 | 0.00 | 0.00 | 0.00 | 40 | 1007.2 |
| 20260505215908 | 26 | 0 | 0.0 | 0.0 | 0.00 | 0.00 | 0.00 | 40 | 1007.1 |
| 20260505214907 | 26 | 0 | 0.0 | 0.0 | 0.00 | 0.00 | 0.00 | 40 | 1007.1 |
| 20260505213908 | 26 | 0 | 0.0 | 0.0 | 0.00 | 0.00 | 0.00 | 40 | 1007.0 |
| 20260505212908 | 26 | 0 | 0.0 | 0.0 | 0.00 | 0.00 | 0.00 | 40 | 1007.0 |
| 20260505211908 | 26 | 0 | 0.0 | 0.0 | 0.00 | 0.00 | 0.00 | 42 | 1006.9 |
| 20260505210908 | 26 | 0 | 0.0 | 0.0 | 0.00 | 0.00 | 0.00 | 39 | 1007.0 |
| 20260505205907 | 26 | 0 | 0.0 | 0.0 | 0.00 | 0.00 | 0.00 | 40 | 1007.0 |
| 20260505204907 | 26 | 0 | 0.0 | 0.0 | 0.00 | 0.00 | 0.00 | 39 | 1007.1 |
| 20260505203908 | 27 | 0 | 0.0 | 0.0 | 0.00 | 0.00 | 0.00 | 38 | 1006.9 |
| 20260505202908 | 26 | 0 | 0.0 | 0.0 | 0.00 | 0.00 | 0.00 | 38 | 1007.1 |
| 20260505201908 | 27 | 0 | 0.0 | 0.0 | 0.00 | 0.00 | 0.00 | 41 | 1007.1 |
| 20260505200908 | 26 | 0 | 0.0 | 0.0 | 0.00 | 0.00 | 0.00 | 41 | 1007.2 |
| 20260505195907 | 26 | 0 | 0.0 | 0.0 | 0.00 | 0.00 | 0.00 | 39 | 1007.3 |
| 20260505194907 | 27 | 0 | 0.0 | 0.0 | 0.00 | 0.00 | 0.00 | 39 | 1007.3 |
| 20260505193907 | 27 | 0 | 0.0 | 0.0 | 0.00 | 0.00 | 0.00 | 41 | 1007.2 |